AUA1ER EGLL-LOWW

Flight info

Callsign AUA1ER
Flight time 1h 41m
Altitude 37000
Route DET L6 DVR UL9 KONAN UL607 KOK DCT DENOX DCT MATUG DCT GUBAX DCT BARSU DCT EKSOS DCT LULAR DCT RUDAP DCT BUDEX BUDEX2W
Aircraft A320/M-SDE3FGHIRWY/LB1

Departure

Time 2026-04-24 20:21
Airport London Heathrow Airport (EGLL)

Arrival

Time 2026-04-24 22:02
Airport Vienna International Airport (LOWW)
Time Latitude Longitude Altitude Speed Heading
2026-04-24 19:29 51.46858 -0.44885 86 ft 0 kts 360°
2026-04-24 20:00 51.46844 -0.44885 86 ft 3 kts 360°
2026-04-24 20:00 51.46823 -0.44885 82 ft 3 kts 360°
2026-04-24 20:00 51.46803 -0.44885 82 ft 3 kts 360°
2026-04-24 20:01 51.46785 -0.44885 82 ft 2 kts 359°
2026-04-24 20:01 51.46766 -0.44882 82 ft 3 kts 336°
2026-04-24 20:01 51.46752 -0.44866 82 ft 3 kts 289°
2026-04-24 20:01 51.46750 -0.44837 84 ft 3 kts 262°
2026-04-24 20:02 51.46752 -0.44815 85 ft 2 kts 265°
2026-04-24 20:02 51.46753 -0.44803 85 ft 0 kts 269°
2026-04-24 20:05 51.46754 -0.44814 85 ft 7 kts 279°
2026-04-24 20:06 51.46753 -0.44951 83 ft 13 kts 269°
2026-04-24 20:06 51.46751 -0.45032 82 ft 6 kts 263°
2026-04-24 20:06 51.46721 -0.45074 85 ft 11 kts 193°
2026-04-24 20:06 51.46664 -0.45160 82 ft 12 kts 262°
2026-04-24 20:07 51.46664 -0.45247 82 ft 12 kts 271°
2026-04-24 20:07 51.46662 -0.45431 84 ft 15 kts 268°
2026-04-24 20:07 51.46660 -0.45634 87 ft 20 kts 268°
2026-04-24 20:07 51.46661 -0.45849 84 ft 18 kts 271°
2026-04-24 20:08 51.46660 -0.46067 87 ft 26 kts 270°
2026-04-24 20:08 51.46659 -0.46398 84 ft 31 kts 270°
2026-04-24 20:08 51.46659 -0.46712 85 ft 20 kts 269°
2026-04-24 20:08 51.46658 -0.46836 84 ft 10 kts 269°
2026-04-24 20:09 51.46657 -0.46943 85 ft 9 kts 269°
2026-04-24 20:09 51.46657 -0.47044 84 ft 9 kts 270°
2026-04-24 20:09 51.46657 -0.47138 86 ft 8 kts 270°
2026-04-24 20:09 51.46657 -0.47227 82 ft 8 kts 270°
2026-04-24 20:10 51.46656 -0.47310 85 ft 7 kts 270°
2026-04-24 20:10 51.46656 -0.47448 82 ft 17 kts 269°
2026-04-24 20:10 51.46656 -0.47633 84 ft 16 kts 270°
2026-04-24 20:10 51.46656 -0.47802 82 ft 15 kts 270°
2026-04-24 20:11 51.46655 -0.47956 82 ft 13 kts 269°
2026-04-24 20:11 51.46655 -0.48003 82 ft 0 kts 269°
2026-04-24 20:15 51.46655 -0.48007 82 ft 3 kts 269°
2026-04-24 20:15 51.46654 -0.48038 82 ft 0 kts 269°
2026-04-24 20:16 51.46654 -0.48039 82 ft 1 kts 269°
2026-04-24 20:17 51.46654 -0.48097 82 ft 6 kts 270°
2026-04-24 20:17 51.46654 -0.48217 82 ft 18 kts 269°
2026-04-24 20:17 51.46654 -0.48376 82 ft 11 kts 270°
2026-04-24 20:18 51.46654 -0.48416 82 ft 4 kts 266°
2026-04-24 20:18 51.46608 -0.48471 84 ft 8 kts 179°
2026-04-24 20:18 51.46584 -0.48471 83 ft 0 kts 180°
2026-04-24 20:19 51.46558 -0.48471 84 ft 10 kts 180°
2026-04-24 20:19 51.46499 -0.48462 84 ft 8 kts 154°
2026-04-24 20:20 51.46480 -0.48387 86 ft 8 kts 90°
2026-04-24 20:20 51.46480 -0.48370 85 ft 0 kts 90°
2026-04-24 20:20 51.46480 -0.48335 84 ft 17 kts 90°
2026-04-24 20:21 51.46480 -0.47695 81 ft 94 kts 90°
2026-04-24 20:21 51.46485 -0.46329 86 ft 149 kts 90°
2026-04-24 20:21 51.46488 -0.44630 707 ft 151 kts 90°
2026-04-24 20:21 51.46498 -0.42949 1517 ft 150 kts 90°
2026-04-24 20:22 51.46395 -0.41267 2116 ft 163 kts 115°
2026-04-24 20:22 51.45940 -0.40242 2370 ft 179 kts 128°
2026-04-24 20:22 51.45108 -0.38600 2714 ft 201 kts 127°
2026-04-24 20:22 51.44219 -0.36734 3116 ft 221 kts 122°
2026-04-24 20:23 51.43642 -0.34363 3662 ft 240 kts 103°
2026-04-24 20:23 51.43241 -0.31668 4344 ft 255 kts 103°
2026-04-24 20:23 51.42835 -0.28865 5270 ft 262 kts 103°
2026-04-24 20:23 51.42425 -0.25976 5818 ft 269 kts 103°
2026-04-24 20:24 51.42025 -0.23051 5975 ft 269 kts 102°
2026-04-24 20:24 51.41629 -0.20117 6008 ft 269 kts 103°
2026-04-24 20:24 51.41232 -0.17164 6453 ft 273 kts 102°
2026-04-24 20:24 51.40827 -0.14176 7435 ft 276 kts 102°
2026-04-24 20:25 51.40415 -0.11156 8357 ft 280 kts 102°
2026-04-24 20:25 51.39995 -0.08088 9247 ft 285 kts 102°
2026-04-24 20:25 51.39564 -0.04959 10145 ft 290 kts 102°
2026-04-24 20:25 51.39116 -0.01723 10673 ft 308 kts 102°
2026-04-24 20:26 51.38631 0.01753 10971 ft 332 kts 103°
2026-04-24 20:26 51.38111 0.05469 11419 ft 348 kts 103°
2026-04-24 20:26 51.37578 0.09278 12148 ft 354 kts 103°
2026-04-24 20:26 51.37035 0.13144 12916 ft 359 kts 103°
2026-04-24 20:27 51.36484 0.17063 13684 ft 363 kts 104°
2026-04-24 20:27 51.35928 0.21032 14440 ft 367 kts 103°
2026-04-24 20:27 51.35374 0.24983 15101 ft 371 kts 103°
2026-04-24 20:27 51.34800 0.29045 15756 ft 376 kts 104°
2026-04-24 20:28 51.34210 0.33197 16404 ft 381 kts 104°
2026-04-24 20:28 51.33625 0.37308 17031 ft 386 kts 104°
2026-04-24 20:28 51.33022 0.41521 17618 ft 391 kts 104°
2026-04-24 20:28 51.32409 0.45792 18228 ft 397 kts 104°
2026-04-24 20:29 51.31990 0.48707 18625 ft 400 kts 104°
2026-04-24 20:29 51.31154 0.54497 19327 ft 406 kts 104°
2026-04-24 20:29 51.30514 0.58917 19851 ft 411 kts 104°
2026-04-24 20:29 51.29819 0.63371 20365 ft 415 kts 106°
2026-04-24 20:30 51.29040 0.67827 20868 ft 419 kts 107°
2026-04-24 20:30 51.28202 0.72316 21372 ft 423 kts 108°
2026-04-24 20:30 51.27335 0.76832 21864 ft 427 kts 108°
2026-04-24 20:30 51.26459 0.81388 22333 ft 432 kts 108°
2026-04-24 20:31 51.25582 0.86008 22827 ft 436 kts 108°
2026-04-24 20:31 51.24715 0.90658 23302 ft 440 kts 107°
2026-04-24 20:31 51.23847 0.95370 23763 ft 444 kts 107°
2026-04-24 20:31 51.22972 1.00127 24156 ft 448 kts 107°
2026-04-24 20:32 51.22087 1.04913 24571 ft 451 kts 107°
2026-04-24 20:32 51.21193 1.09716 24983 ft 453 kts 107°
2026-04-24 20:32 51.20287 1.14557 25392 ft 456 kts 107°
2026-04-24 20:32 51.19389 1.19340 25787 ft 458 kts 107°
2026-04-24 20:33 51.18462 1.24257 26194 ft 461 kts 107°
2026-04-24 20:33 51.17543 1.29116 26586 ft 463 kts 107°
2026-04-24 20:33 51.16636 1.34083 26979 ft 466 kts 104°
2026-04-24 20:33 51.16103 1.39145 27355 ft 468 kts 95°
2026-04-24 20:34 51.15863 1.44327 27739 ft 470 kts 94°
2026-04-24 20:34 51.15621 1.49594 28129 ft 473 kts 94°
2026-04-24 20:34 51.15377 1.54768 28494 ft 475 kts 94°
2026-04-24 20:34 51.15120 1.60062 28851 ft 477 kts 94°
2026-04-24 20:35 51.14857 1.65362 29194 ft 479 kts 94°
2026-04-24 20:35 51.14590 1.70631 29534 ft 481 kts 94°
2026-04-24 20:35 51.14318 1.75957 29868 ft 484 kts 94°
2026-04-24 20:35 51.14044 1.81309 30200 ft 486 kts 94°
2026-04-24 20:36 51.13770 1.86691 30491 ft 488 kts 94°
2026-04-24 20:36 51.13495 1.92050 30763 ft 490 kts 95°
2026-04-24 20:36 51.13212 1.97479 31124 ft 489 kts 95°
2026-04-24 20:36 51.12926 2.02914 31498 ft 489 kts 95°
2026-04-24 20:37 51.12644 2.08256 31862 ft 488 kts 95°
2026-04-24 20:37 51.12358 2.13629 32232 ft 487 kts 95°
2026-04-24 20:37 51.12069 2.18996 32603 ft 487 kts 95°
2026-04-24 20:37 51.11778 2.24357 32971 ft 486 kts 95°
2026-04-24 20:38 51.11487 2.29701 33338 ft 486 kts 95°
2026-04-24 20:38 51.11191 2.35090 33700 ft 485 kts 95°
2026-04-24 20:38 51.10892 2.40426 34072 ft 485 kts 95°
2026-04-24 20:38 51.10594 2.45733 34427 ft 484 kts 95°
2026-04-24 20:39 51.10293 2.51056 34759 ft 483 kts 95°
2026-04-24 20:39 51.09984 2.56410 35099 ft 482 kts 95°
2026-04-24 20:39 51.09677 2.61694 35425 ft 481 kts 95°
2026-04-24 20:39 51.09200 2.66974 35732 ft 480 kts 103°
2026-04-24 20:40 51.08433 2.72099 36038 ft 479 kts 104°
2026-04-24 20:40 51.07652 2.77258 36333 ft 478 kts 104°
2026-04-24 20:40 51.06879 2.82371 36614 ft 477 kts 104°
2026-04-24 20:40 51.06101 2.87507 36905 ft 476 kts 104°
2026-04-24 20:41 51.05324 2.92618 37161 ft 476 kts 104°
2026-04-24 20:41 51.04539 2.97757 37247 ft 476 kts 104°
2026-04-24 20:41 51.02977 3.07927 37250 ft 475 kts 104°
2026-04-24 20:42 51.01408 3.18099 37249 ft 475 kts 104°
2026-04-24 20:42 50.99825 3.28296 37255 ft 475 kts 104°
2026-04-24 20:43 50.98236 3.38453 37253 ft 475 kts 104°
2026-04-24 20:43 50.96630 3.48640 37249 ft 475 kts 104°
2026-04-24 20:44 50.95024 3.58792 37238 ft 474 kts 104°
2026-04-24 20:44 50.93404 3.68966 37240 ft 474 kts 105°
2026-04-24 20:45 50.91783 3.79098 37251 ft 475 kts 105°
2026-04-24 20:45 50.90149 3.89230 37243 ft 475 kts 105°
2026-04-24 20:46 50.88511 3.99306 37243 ft 475 kts 105°
2026-04-24 20:46 50.86795 4.09411 37239 ft 475 kts 107°
2026-04-24 20:47 50.84911 4.19390 37239 ft 475 kts 108°
2026-04-24 20:47 50.82961 4.29425 37241 ft 475 kts 108°
2026-04-24 20:48 50.81058 4.39401 37245 ft 475 kts 107°
2026-04-24 20:48 50.79167 4.49437 37246 ft 475 kts 107°
2026-04-24 20:49 50.77272 4.59410 37259 ft 474 kts 108°
2026-04-24 20:49 50.75364 4.69361 37257 ft 472 kts 108°
2026-04-24 20:50 50.73455 4.79244 37256 ft 471 kts 108°
2026-04-24 20:50 50.71541 4.89129 37247 ft 471 kts 108°
2026-04-24 20:51 50.69622 4.99004 37239 ft 470 kts 108°
2026-04-24 20:51 50.67689 5.08852 37230 ft 470 kts 108°
2026-04-24 20:52 50.65742 5.18695 37223 ft 470 kts 109°
2026-04-24 20:52 50.63794 5.28529 37232 ft 470 kts 109°
2026-04-24 20:53 50.61840 5.38371 37222 ft 470 kts 109°
2026-04-24 20:53 50.59886 5.48132 37233 ft 470 kts 109°
2026-04-24 20:54 50.57914 5.57946 37230 ft 470 kts 109°
2026-04-24 20:54 50.55933 5.67748 37227 ft 470 kts 109°
2026-04-24 20:55 50.53944 5.77551 37224 ft 470 kts 109°
2026-04-24 20:55 50.51945 5.87346 37223 ft 471 kts 109°
2026-04-24 20:56 50.49938 5.97147 37218 ft 471 kts 109°
2026-04-24 20:56 50.47923 6.06929 37217 ft 470 kts 110°
2026-04-24 20:57 50.45913 6.16640 37212 ft 471 kts 110°
2026-04-24 20:57 50.43877 6.26402 37211 ft 471 kts 110°
2026-04-24 20:58 50.41902 6.36178 37209 ft 472 kts 105°
2026-04-24 20:58 50.40960 6.46382 37204 ft 474 kts 98°
2026-04-24 20:59 50.40181 6.56634 37196 ft 474 kts 98°
2026-04-24 20:59 50.39380 6.66914 37187 ft 475 kts 98°
2026-04-24 21:00 50.38576 6.77200 37188 ft 475 kts 98°
2026-04-24 21:00 50.37765 6.87477 37200 ft 476 kts 99°
2026-04-24 21:01 50.36942 6.97768 37194 ft 476 kts 99°
2026-04-24 21:01 50.36115 7.08009 37180 ft 477 kts 99°
2026-04-24 21:02 50.35270 7.18332 37186 ft 478 kts 99°
2026-04-24 21:02 50.34411 7.28669 37188 ft 478 kts 99°
2026-04-24 21:03 50.33538 7.39006 37189 ft 479 kts 99°
2026-04-24 21:03 50.32659 7.49365 37182 ft 479 kts 99°
2026-04-24 21:04 50.31788 7.59644 37187 ft 480 kts 99°
2026-04-24 21:04 50.30897 7.70003 37191 ft 480 kts 99°
2026-04-24 21:05 50.29990 7.80364 37194 ft 480 kts 99°
2026-04-24 21:05 50.29069 7.90709 37188 ft 481 kts 100°
2026-04-24 21:06 50.27855 8.00980 37181 ft 480 kts 104°
2026-04-24 21:06 50.26356 8.11100 37176 ft 480 kts 105°
2026-04-24 21:07 50.24830 8.21329 37177 ft 481 kts 104°
2026-04-24 21:07 50.23404 8.31475 37177 ft 481 kts 104°
2026-04-24 21:08 50.22223 8.39993 37171 ft 482 kts 104°
2026-04-24 21:08 50.20786 8.50202 37161 ft 482 kts 104°
2026-04-24 21:09 50.19320 8.60424 37172 ft 482 kts 104°
2026-04-24 21:09 50.17838 8.70664 37171 ft 482 kts 104°
2026-04-24 21:10 50.16367 8.80818 37169 ft 482 kts 104°
2026-04-24 21:10 50.14876 8.91042 37176 ft 482 kts 104°
2026-04-24 21:11 50.13383 9.01209 37170 ft 482 kts 104°
2026-04-24 21:11 50.11869 9.11408 37175 ft 482 kts 105°
2026-04-24 21:12 50.10353 9.21577 37166 ft 483 kts 104°
2026-04-24 21:12 50.08822 9.31802 37163 ft 483 kts 104°
2026-04-24 21:13 50.07287 9.42006 37163 ft 483 kts 105°
2026-04-24 21:13 50.05747 9.52158 37165 ft 483 kts 105°
2026-04-24 21:14 50.04201 9.62296 37168 ft 483 kts 104°
2026-04-24 21:14 50.02629 9.72500 37159 ft 484 kts 105°
2026-04-24 21:15 50.01053 9.82673 37159 ft 484 kts 105°
2026-04-24 21:15 49.99474 9.92844 37135 ft 484 kts 105°
2026-04-24 21:16 49.97896 10.02954 37165 ft 484 kts 105°
2026-04-24 21:16 49.96287 10.13146 37171 ft 483 kts 105°
2026-04-24 21:17 49.94678 10.23257 37174 ft 484 kts 105°
2026-04-24 21:17 49.93060 10.33413 37161 ft 484 kts 105°
2026-04-24 21:18 49.91052 10.43321 37169 ft 482 kts 114°
2026-04-24 21:18 49.88558 10.52936 37163 ft 482 kts 113°
2026-04-24 21:19 49.86063 10.62586 37166 ft 482 kts 113°
2026-04-24 21:19 49.83553 10.72254 37168 ft 482 kts 114°
2026-04-24 21:20 49.79786 10.86670 37157 ft 482 kts 114°
2026-04-24 21:21 49.77255 10.96293 37135 ft 482 kts 113°
2026-04-24 21:21 49.74717 11.05896 37134 ft 482 kts 114°
2026-04-24 21:22 49.72184 11.15439 37135 ft 483 kts 114°
2026-04-24 21:22 49.69627 11.25030 37125 ft 482 kts 114°
2026-04-24 21:23 49.67064 11.34610 37124 ft 483 kts 114°
2026-04-24 21:23 49.64558 11.44235 37108 ft 483 kts 111°
2026-04-24 21:24 49.62465 11.54090 37108 ft 484 kts 107°
2026-04-24 21:24 49.60550 11.64041 37085 ft 484 kts 107°
2026-04-24 21:25 49.58562 11.73928 37108 ft 483 kts 108°
2026-04-24 21:25 49.56490 11.83719 37114 ft 482 kts 108°
2026-04-24 21:26 49.54397 11.93500 37114 ft 481 kts 108°
2026-04-24 21:26 49.52308 12.03303 37116 ft 481 kts 108°
2026-04-24 21:27 49.50220 12.13106 37108 ft 481 kts 108°
2026-04-24 21:27 49.48129 12.22908 37104 ft 481 kts 108°
2026-04-24 21:28 49.46037 12.32632 37097 ft 482 kts 108°
2026-04-24 21:28 49.43911 12.42419 37095 ft 482 kts 108°
2026-04-24 21:29 49.41786 12.52174 37102 ft 482 kts 109°
2026-04-24 21:29 49.39665 12.61895 37106 ft 482 kts 108°
2026-04-24 21:30 49.37513 12.71687 37104 ft 482 kts 108°
2026-04-24 21:30 49.35321 12.81405 37107 ft 482 kts 110°
2026-04-24 21:31 49.32973 12.90994 37104 ft 483 kts 111°
2026-04-24 21:31 49.30552 13.00602 37102 ft 483 kts 111°
2026-04-24 21:32 49.28164 13.10213 37109 ft 483 kts 110°
2026-04-24 21:32 49.25793 13.19838 37112 ft 483 kts 110°
2026-04-24 21:33 49.23405 13.29431 37107 ft 483 kts 111°
2026-04-24 21:33 49.20874 13.38965 37113 ft 483 kts 112°
2026-04-24 21:34 49.18267 13.48419 37119 ft 483 kts 112°
2026-04-24 21:34 49.15693 13.57828 37138 ft 482 kts 112°
2026-04-24 21:35 49.13132 13.67279 37140 ft 481 kts 112°
2026-04-24 21:35 49.10572 13.76709 37141 ft 480 kts 112°
2026-04-24 21:36 49.08004 13.86116 37146 ft 480 kts 112°
2026-04-24 21:36 49.05421 13.95506 37137 ft 480 kts 112°
2026-04-24 21:37 49.02834 14.04886 37134 ft 480 kts 112°
2026-04-24 21:37 49.00253 14.14192 37129 ft 480 kts 112°
2026-04-24 21:38 48.97639 14.23548 37135 ft 480 kts 112°
2026-04-24 21:38 48.94914 14.32816 37118 ft 481 kts 119°
2026-04-24 21:39 48.91050 14.41114 36703 ft 483 kts 128°
2026-04-24 21:39 48.88987 14.45193 35553 ft 486 kts 128°
2026-04-24 21:39 48.86922 14.49280 34113 ft 490 kts 128°
2026-04-24 21:39 48.84840 14.53397 32474 ft 492 kts 128°
2026-04-24 21:40 48.82747 14.57528 30823 ft 494 kts 128°
2026-04-24 21:40 48.80648 14.61666 29427 ft 491 kts 128°
2026-04-24 21:40 48.78610 14.65675 28886 ft 466 kts 128°
2026-04-24 21:40 48.76668 14.69489 28166 ft 449 kts 128°
2026-04-24 21:41 48.74783 14.73178 27470 ft 436 kts 128°
2026-04-24 21:41 48.72929 14.76801 26796 ft 434 kts 127°
2026-04-24 21:41 48.71111 14.80355 26174 ft 431 kts 127°
2026-04-24 21:41 48.69281 14.83932 25549 ft 429 kts 127°
2026-04-24 21:42 48.67451 14.87507 24912 ft 429 kts 127°
2026-04-24 21:42 48.65624 14.91066 24285 ft 428 kts 127°
2026-04-24 21:42 48.63799 14.94617 23663 ft 427 kts 127°
2026-04-24 21:42 48.61979 14.98152 22989 ft 425 kts 127°
2026-04-24 21:43 48.60236 15.01725 22437 ft 419 kts 121°
2026-04-24 21:43 48.58873 15.05590 21888 ft 414 kts 111°
2026-04-24 21:43 48.57950 15.09652 21380 ft 407 kts 102°
2026-04-24 21:43 48.57247 15.13781 20875 ft 403 kts 102°
2026-04-24 21:44 48.56548 15.17862 20388 ft 400 kts 102°
2026-04-24 21:44 48.55849 15.21911 19902 ft 396 kts 102°
2026-04-24 21:44 48.55151 15.25921 19413 ft 394 kts 102°
2026-04-24 21:44 48.54453 15.29911 18930 ft 391 kts 102°
2026-04-24 21:45 48.53757 15.33891 18421 ft 390 kts 102°
2026-04-24 21:45 48.53067 15.37853 17876 ft 389 kts 102°
2026-04-24 21:45 48.52392 15.41731 17354 ft 386 kts 102°
2026-04-24 21:45 48.51914 15.45692 16875 ft 384 kts 92°
2026-04-24 21:46 48.51708 15.49756 16552 ft 391 kts 91°
2026-04-24 21:46 48.51488 15.53847 16179 ft 391 kts 91°
2026-04-24 21:46 48.51256 15.57930 15803 ft 389 kts 92°
2026-04-24 21:46 48.51018 15.61990 15431 ft 387 kts 92°
2026-04-24 21:47 48.50780 15.66020 15069 ft 385 kts 92°
2026-04-24 21:47 48.50621 15.68735 14821 ft 384 kts 92°
2026-04-24 21:47 48.50311 15.74024 14338 ft 380 kts 92°
2026-04-24 21:47 48.50077 15.77996 13967 ft 380 kts 92°
2026-04-24 21:48 48.49843 15.81949 13572 ft 378 kts 92°
2026-04-24 21:48 48.49608 15.85885 13209 ft 375 kts 92°
2026-04-24 21:48 48.49374 15.89790 12850 ft 373 kts 92°
2026-04-24 21:48 48.49139 15.93677 12492 ft 371 kts 92°
2026-04-24 21:49 48.48904 15.97536 12137 ft 369 kts 92°
2026-04-24 21:49 48.48671 16.01371 11779 ft 367 kts 92°
2026-04-24 21:49 48.48245 16.05146 11425 ft 367 kts 104°
2026-04-24 21:49 48.47266 16.08697 11073 ft 367 kts 118°
2026-04-24 21:50 48.45784 16.11800 10731 ft 364 kts 132°
2026-04-24 21:50 48.43907 16.14255 10589 ft 349 kts 146°
2026-04-24 21:50 48.41932 16.16259 10485 ft 336 kts 146°
2026-04-24 21:50 48.40033 16.18197 10360 ft 324 kts 146°
2026-04-24 21:51 48.38190 16.20083 10126 ft 317 kts 146°
2026-04-24 21:51 48.36379 16.21938 10007 ft 313 kts 146°
2026-04-24 21:51 48.34593 16.23765 9703 ft 314 kts 146°
2026-04-24 21:51 48.32801 16.25593 9404 ft 312 kts 146°
2026-04-24 21:52 48.31008 16.27416 9050 ft 311 kts 146°
2026-04-24 21:52 48.29247 16.29206 8746 ft 308 kts 147°
2026-04-24 21:52 48.27475 16.31005 8450 ft 307 kts 147°
2026-04-24 21:52 48.25707 16.32779 8131 ft 304 kts 150°
2026-04-24 21:53 48.23758 16.33868 7724 ft 297 kts 172°
2026-04-24 21:53 48.21724 16.34367 7311 ft 295 kts 175°
2026-04-24 21:53 48.20355 16.34668 7046 ft 294 kts 175°
2026-04-24 21:53 48.18334 16.35128 6648 ft 293 kts 173°
2026-04-24 21:54 48.16361 16.35900 6263 ft 294 kts 160°
2026-04-24 21:54 48.14640 16.37508 5660 ft 293 kts 141°
2026-04-24 21:54 48.13097 16.39490 4940 ft 291 kts 140°
2026-04-24 21:54 48.11477 16.41257 4256 ft 286 kts 148°
2026-04-24 21:55 48.09775 16.42746 3623 ft 281 kts 150°
2026-04-24 21:55 48.08084 16.44171 2958 ft 277 kts 150°
2026-04-24 21:55 48.06428 16.45551 2582 ft 262 kts 150°
2026-04-24 21:55 48.04904 16.46819 2501 ft 239 kts 150°
2026-04-24 21:56 48.03505 16.47869 2501 ft 218 kts 155°
2026-04-24 21:56 48.02201 16.48773 2519 ft 193 kts 153°
2026-04-24 21:56 48.01154 16.49849 2501 ft 176 kts 138°
2026-04-24 21:56 48.00263 16.51022 2516 ft 166 kts 136°
2026-04-24 21:57 47.99423 16.52169 2510 ft 162 kts 135°
2026-04-24 21:57 47.98607 16.53284 2525 ft 156 kts 135°
2026-04-24 21:57 47.97834 16.54398 2511 ft 153 kts 123°
2026-04-24 21:57 47.97357 16.55777 2511 ft 148 kts 102°
2026-04-24 21:58 47.97166 16.57270 2511 ft 145 kts 89°
2026-04-24 21:58 47.97179 16.58757 2512 ft 142 kts 80°
2026-04-24 21:58 47.97260 16.60225 2512 ft 141 kts 76°
2026-04-24 21:58 47.97588 16.61551 2513 ft 134 kts 50°
2026-04-24 21:59 47.98229 16.62503 2511 ft 128 kts 27°
2026-04-24 21:59 47.99045 16.62970 2476 ft 125 kts
2026-04-24 21:59 47.99911 16.62909 2378 ft 126 kts 344°
2026-04-24 21:59 48.00762 16.62550 2239 ft 127 kts 343°
2026-04-24 22:00 48.01616 16.62190 2082 ft 127 kts 343°
2026-04-24 22:00 48.02465 16.61833 1912 ft 127 kts 343°
2026-04-24 22:00 48.03302 16.61480 1750 ft 126 kts 343°
2026-04-24 22:00 48.04148 16.61123 1582 ft 126 kts 343°
2026-04-24 22:01 48.04997 16.60765 1409 ft 127 kts 345°
2026-04-24 22:01 48.05850 16.60401 1215 ft 127 kts 345°
2026-04-24 22:01 48.06707 16.60033 1056 ft 129 kts 344°
2026-04-24 22:01 48.07567 16.59659 898 ft 129 kts 346°
2026-04-24 22:02 48.08428 16.59306 737 ft 127 kts 347°
2026-04-24 22:02 48.09274 16.58949 630 ft 121 kts 347°
2026-04-24 22:02 48.09967 16.58668 626 ft 80 kts 344°
2026-04-24 22:02 48.10337 16.58510 617 ft 36 kts 344°
2026-04-24 22:03 48.10573 16.58410 607 ft 34 kts 341°
2026-04-24 22:03 48.10760 16.58238 621 ft 31 kts 315°
2026-04-24 22:03 48.10880 16.58053 617 ft 11 kts 316°
2026-04-24 22:03 48.10937 16.57966 621 ft 12 kts 314°
2026-04-24 22:04 48.10992 16.57881 628 ft 2 kts 313°
2026-04-24 22:05 48.11004 16.57861 621 ft 10 kts 314°
2026-04-24 22:05 48.11070 16.57785 619 ft 14 kts 336°
2026-04-24 22:05 48.11158 16.57709 620 ft 16 kts 303°
2026-04-24 22:06 48.11210 16.57556 619 ft 18 kts 296°
2026-04-24 22:06 48.11268 16.57378 622 ft 19 kts 297°
2026-04-24 22:06 48.11341 16.57357 622 ft 9 kts 22°
2026-04-24 22:06 48.11429 16.57380 622 ft 19 kts 331°
2026-04-24 22:07 48.11490 16.57198 616 ft 21 kts 300°
2026-04-24 22:07 48.11556 16.56993 613 ft 15 kts 295°
2026-04-24 22:07 48.11614 16.56923 615 ft 13 kts 12°
2026-04-24 22:07 48.11640 16.56938 613 ft 4 kts 26°
2026-04-24 22:08 48.11653 16.56949 610 ft 0 kts 28°